This is the latest recevied weather packets stored in our database for station/object IT9CNT. If no packets are shown the sender has not sent any weather packets the latest 1 day(s).
| Time | Temp. | Humidity | Pressure | Rain* | Wind** | Luminosity | Snow |
|---|---|---|---|---|---|---|---|
| 1778009403 | 16.67° C | 67% | 1013.1 hPa | 0 mm | 2.24 m/s, 89° | - | - |
| 1778009343 | 16.67° C | 67% | 1013.1 hPa | 0 mm | 2.24 m/s, 81° | - | - |
| 1778009283 | 16.67° C | 67% | 1013 hPa | 0 mm | 2.24 m/s, 83° | - | - |
| 1778009223 | 16.67° C | 67% | 1013 hPa | 0 mm | 2.24 m/s, 86° | - | - |
| 1778009163 | 16.67° C | 68% | 1013 hPa | 0 mm | 2.24 m/s, 91° | - | - |
| 1778009103 | 16.67° C | 69% | 1013.1 hPa | 0 mm | 2.24 m/s, 94° | - | - |
| 1778009043 | 16.67° C | 69% | 1013.1 hPa | 0 mm | 2.24 m/s, 94° | - | - |
| 1778008983 | 16.67° C | 70% | 1013.1 hPa | 0 mm | 2.24 m/s, 97° | - | - |
| 1778008923 | 16.67° C | 70% | 1013.1 hPa | 0 mm | 2.24 m/s, 98° | - | - |
| 1778008863 | 16.67° C | 72% | 1013.1 hPa | 0 mm | 2.24 m/s, 94° | - | - |
| 1778008803 | 16.67° C | 72% | 1013.4 hPa | 0 mm | 2.24 m/s, 93° | - | - |
| 1778008743 | 16.67° C | 73% | 1013.2 hPa | 0 mm | 2.24 m/s, 97° | - | - |
| 1778008683 | 16.67° C | 73% | 1013.1 hPa | 0 mm | 2.24 m/s, 98° | - | - |
| 1778008623 | 16.67° C | 74% | 1013.4 hPa | 0 mm | 2.24 m/s, 98° | - | - |
| 1778008563 | 16.67° C | 74% | 1013.1 hPa | 0 mm | 2.24 m/s, 95° | - | - |
| 1778008503 | 16.67° C | 74% | 1013.1 hPa | 0 mm | 2.24 m/s, 91° | - | - |
| 1778008443 | 16.67° C | 75% | 1012.9 hPa | 0 mm | 2.24 m/s, 86° | - | - |
| 1778008383 | 16.67° C | 75% | 1013.1 hPa | 0 mm | 2.24 m/s, 82° | - | - |
| 1778008323 | 16.67° C | 75% | 1013.1 hPa | 0 mm | 2.24 m/s, 82° | - | - |
| 1778008263 | 16.67° C | 76% | 1013.2 hPa | 0 mm | 2.68 m/s, 86° | - | - |
| 1778008203 | 16.67° C | 76% | 1013 hPa | 0 mm | 2.68 m/s, 83° | - | - |
| 1778008143 | 16.67° C | 76% | 1013.3 hPa | 0 mm | 2.68 m/s, 79° | - | - |
| 1778008084 | 16.67° C | 77% | 1012.8 hPa | 0 mm | 2.68 m/s, 80° | - | - |
| 1778008024 | 16.67° C | 77% | 1013 hPa | 0 mm | 2.68 m/s, 84° | - | - |
| 1778007964 | 16.67° C | 78% | 1013.1 hPa | 0 mm | 2.68 m/s, 85° | - | - |
* Rain latest hour (hover to see other rain measurements)
** Current wind speed in m/s (hover to see current wind gust speed)